Regional Weather Roundup
Issued by NWS

Home | Current Version | Previous Version | Text Only | Print | Product List | Glossary On
Versions: 1 2 3 4 5 6 7 8 9 10 11 12 13 14 15 16 17 18 19 20 21 22 23 24 25 26 27 28 29 30 31 32 33 34 35 36 37 38 39 40 41 42 43 44 45 46 47 48 49 50
000
ASUS46 KSTO 200815
RWRCA

NORTHERN AND CENTRAL CA REGIONAL WEATHER ROUNDUP
NATIONAL WEATHER SERVICE SACRAMENTO CA
1200 AM PST TUE FEB 20 2018

NOTE: FAIR INDICATES FEW OR NO CLOUDS BELOW 12,000 FEET WITH NO
SIGNIFICANT WEATHER AND/OR OBSTRUCTIONS TO VISIBILITY.

CAZ001-003-200900-
NORTHWEST AREA

CITY           SKY/WX    TMP DP  RH WIND       PRES   REMARKS
CRESCENT CITY  PTCLDY    35  28  75 NE3       30.29S
UKIAH          CLEAR     32  23  69 CALM      30.20R
$$

CAZ006-505>513-200900-
BAY AREA

CITY           SKY/WX    TMP DP  RH WIND       PRES   REMARKS
SANTA ROSA     CLEAR     36  26  67 N9        30.16R WCI  29
SAN RAFAEL     N/A       43  MM  MM MISG
NAPA           CLEAR     32  24  72 NW5       30.16R WCI  27
CONCORD        CLEAR     39  30  70 E3        30.16R
OAKLAND CITY   N/A      MM  MM  MM MISG
OAKLAND        CLEAR     42  28  57 N7        30.15R
SAN FRAN CITY  N/A       44  MM  46 MISG
SAN FRAN ARPT  PTCLDY    44  27  51 W6        30.15R
LIVERMORE      CLEAR     32  26  78 CALM      30.14R
HAYWARD        CLEAR     41  26  55 E5        30.15R
REDWOOD CITY   N/A       41  MM  64 MISG
MOFFETT ARPT   CLEAR     42  29  59 W3        30.16R
SAN JOSE ARPT  CLEAR     43  31  62 W3        30.15R
$$
CAZ034-037-514>518-200900-
CENTRAL COAST

CITY           SKY/WX    TMP DP  RH WIND       PRES   REMARKS
WATSONVILLE    CLEAR     35  29  78 W3        30.15R
SALINAS        CLEAR     36  30  79 CALM      30.15R
MONTEREY       CLEAR     39  32  76 E6        30.15R WCI  35
SAN LUIS OBISP CLEAR     39  27  62 SW7       30.14R WCI  34
SANTA MARIA    CLEAR     37  31  78 SE3       30.14R
$$
CAZ015-016-200900-
NORTHERN SACRAMENTO VALLEY

CITY           SKY/WX    TMP DP  RH WIND       PRES   REMARKS
REDDING        CLEAR     38  14  37 N7        30.18R WCI  33
RED BLUFF      CLEAR     36  18  48 NW9       30.18R WCI  29
OROVILLE       CLEAR     33  24  69 CALM      30.16R
$$
CAZ016>018-200900-
SOUTHERN SACRAMENTO VALLEY

CITY           SKY/WX    TMP DP  RH WIND       PRES   REMARKS
AUBURN         CLEAR     34  23  64 E7        30.09R WCI  28
BEALE AFB      CLEAR     32  22  67 NE5       30.13R WCI  27
LINCOLN        FAIR      30  27  86 E5        30.14R WCI  25
MARYSVILLE     CLEAR     34  25  69 N5        30.16R WCI  30
SAC INTL ARPT  CLEAR     33  22  63 NW9       30.14R WCI  25
MATHER AIRPORT NOT AVBL
DOWNTOWN SAC   N/A       37  MM  MM MISG
SAC EXEC ARPT  CLEAR     37  26  64 NW7       30.14R WCI  32
VACAVILLE      CLEAR     38  24  57 NE6       30.16R WCI  33
TRAVIS AFB     CLEAR     29  23  77 CALM      30.13R
$$
CAZ019>021-200900-
SAN JOAQUIN VALLEY

CITY           SKY/WX    TMP DP  RH WIND       PRES   REMARKS
STOCKTON       CLEAR     35  24  64 NW5       30.13R WCI  31
MODESTO        CLEAR     39  25  57 NW5       30.12R
MERCED         CLEAR     36  20  52 NW3       30.11S
LEMOORE        CLEAR     31  17  56 W7        30.13R WCI  24
FRESNO         CLEAR     38  22  52 CALM      30.12R
HANFORD        CLEAR     35  28  75 NW3       30.13R
PORTERVILLE    CLEAR     31  24  75 SE3       30.14R
BAKERSFIELD    CLEAR     39  22  50 N3        30.13R
$$
CAZ011-012-071-200900-
NORTHERN MOUNTAINS

CITY           SKY/WX    TMP DP  RH WIND       PRES   REMARKS
YREKA          CLEAR     14   9  80 CALM      30.17R
MOUNT SHASTA   CLEAR     22  12  65 VRB3      30.09R
ALTURAS        CLEAR     13   9  84 CALM      30.03R
$$
CAZ011-012-071-200900-
SIERRA NEVADA MTNS

CITY           SKY/WX    TMP DP  RH WIND       PRES   REMARKS
BLUE CANYON    CLEAR     18   5  57 VRB5      29.97R WCI  11
TRUCKEE        CLEAR      3   1  92 CALM      29.97R
TAHOE VLY ARPT CLOUDY    14   5  67 SW3       29.92S
MAMMOTH LAKES  CLOUDY     8   2  77 CALM      29.91S
$$




USA.gov is the U.S. government's official web portal to all federal, state and local government web resources and services.